Alva, OK

10:10 AM CST on February 13, 2016 (GMT -0600)
Alva Regional

Weather History for KAVK - January, 2014

Change the Weather History Date:

Saturday, January 4, 2014

  Actual Average Record
Temperature  
Mean Temperature 32 °F -  
Max Temperature 44 °F 40 °F 70 °F (1956)
Min Temperature 19 °F 19 °F -11 °F (1959)
Degree Days  
Heating Degree Days 32    
Moisture  
Dew Point 23 °F    
Average Humidity 67    
Maximum Humidity 93    
Minimum Humidity 46    
Precipitation  
Precipitation 1.59 in - - ()
Sea Level Pressure  
Sea Level Pressure 29.80 in    
Wind  
Wind Speed 19 mph (North)    
Max Wind Speed 29 mph    
Max Gust Speed 39 mph    
Visibility 9 miles    
Events Rain , Snow    
Averages and records for this station are not official NWS values.
T = Trace of Precipitation, MM = Missing Value Source: NWS Daily Summary

Daily Weather History Graph

Daily Weather History Graph

Search for Another Location

Airport or City:

Trip Planner

Search our weather history database for the weather conditions in past years. The results will help you decide how hot, cold, wet, or windy it might be!

Date:

Astronomy

Jan. 04, 2014 Rise Set
Actual Time 7:47 AM CST 5:31 PM CST
Civil Twilight 7:19 AM CST 6:00 PM CST
Nautical Twilight 6:46 AM CST 6:32 PM CST
Astronomical Twilight 6:15 AM CST 7:04 PM CST
Moon 10:00 AM CST (1/4) 9:46 PM CST (1/4)
Length of Visible Light 10h 41m
Length of Day
9h 44m
Waxing Crescent, 15% of the Moon is Illuminated
Jan 4
Waxing Crescent
Jan 7
First Quarter
Jan 15
Full
Jan 23
Last Quarter
Jan 30
New

Hourly Weather History & Observations

Time (CST) Temp. Windchill Dew Point Humidity Pressure Visibility Wind Dir Wind Speed Gust Speed Precip Events Conditions
12:10 AM 42.8 °F 33.8 °F 24.8 °F 49% 29.66 in 10.0 mi SSW 21.9 mph - N/A   Clear
12:30 AM 44.6 °F 35.5 °F 24.8 °F 46% 29.65 in 10.0 mi SSW 25.3 mph 33.4 mph N/A   Clear
12:50 AM 42.8 °F 33.3 °F 24.8 °F 49% 29.64 in 10.0 mi SSW 24.2 mph - N/A   Clear
1:10 AM 41.0 °F 31.9 °F 24.8 °F 53% 29.63 in 10.0 mi SSW 19.6 mph - N/A   Clear
1:30 AM 41.0 °F 32.2 °F 24.8 °F 53% 29.63 in 10.0 mi SSW 18.4 mph - N/A   Clear
1:50 AM 39.2 °F 30.8 °F 24.8 °F 56% 29.63 in 10.0 mi South 15.0 mph - N/A   Clear
2:10 AM 39.2 °F 30.8 °F 24.8 °F 56% 29.63 in 10.0 mi South 15.0 mph - N/A   Clear
2:30 AM 39.2 °F 29.6 °F 24.8 °F 56% 29.62 in 10.0 mi SSW 19.6 mph - N/A   Clear
2:50 AM 39.2 °F 30.2 °F 24.8 °F 56% 29.61 in 10.0 mi SSW 17.3 mph - N/A   Partly Cloudy
3:10 AM 39.2 °F 30.2 °F 24.8 °F 56% 29.61 in 10.0 mi SSW 17.3 mph - N/A   Partly Cloudy
3:30 AM 39.2 °F 30.8 °F 24.8 °F 56% 29.62 in 10.0 mi SSW 15.0 mph - N/A   Clear
3:50 AM 37.4 °F 28.5 °F 24.8 °F 60% 29.63 in 10.0 mi SW 15.0 mph - N/A   Scattered Clouds
4:10 AM 37.4 °F 29.8 °F 24.8 °F 60% 29.63 in 10.0 mi SSW 11.5 mph - N/A   Partly Cloudy
4:30 AM 35.6 °F 27.5 °F 24.8 °F 65% 29.63 in 10.0 mi SSW 11.5 mph - N/A   Clear
4:50 AM 33.8 °F 25.3 °F 24.8 °F 70% 29.63 in 10.0 mi SSW 11.5 mph - N/A   Clear
5:10 AM 32.0 °F 23.0 °F 24.8 °F 75% 29.63 in 10.0 mi SSW 11.5 mph - N/A   Clear
5:30 AM 32.0 °F 24.2 °F 24.8 °F 75% 29.64 in 10.0 mi SSW 9.2 mph - N/A   Clear
5:50 AM 32.0 °F 24.8 °F 24.8 °F 75% 29.65 in 10.0 mi SW 8.1 mph - N/A   Clear
6:10 AM 32.0 °F 25.6 °F 24.8 °F 75% 29.65 in 10.0 mi SSW 6.9 mph - N/A   Clear
6:30 AM 32.0 °F 26.4 °F 23.0 °F 69% 29.65 in 10.0 mi SSW 5.8 mph - N/A   Partly Cloudy
6:50 AM 32.0 °F 28.7 °F 24.8 °F 75% 29.67 in 10.0 mi West 3.5 mph - N/A   Partly Cloudy
7:10 AM 28.4 °F 22.2 °F 24.8 °F 86% 29.67 in 10.0 mi NW 5.8 mph - N/A   Partly Cloudy
7:30 AM 28.4 °F 24.6 °F 23.0 °F 80% 29.68 in 10.0 mi NW 3.5 mph - N/A   Partly Cloudy
7:50 AM 30.2 °F 20.8 °F 24.8 °F 80% 29.69 in 10.0 mi NNW 11.5 mph - N/A   Clear
8:10 AM 30.2 °F 21.3 °F 24.8 °F 80% 29.69 in 10.0 mi NNW 10.4 mph - N/A   Clear
8:30 AM 30.2 °F 21.3 °F 24.8 °F 80% 29.71 in 10.0 mi North 10.4 mph - N/A   Clear
8:50 AM 32.0 °F 23.0 °F 24.8 °F 75% 29.71 in 10.0 mi North 11.5 mph - N/A   Clear
9:10 AM 32.0 °F 21.6 °F 24.8 °F 75% 29.73 in 10.0 mi North 15.0 mph - N/A   Clear
9:30 AM 35.6 °F 24.8 °F 24.8 °F 65% 29.74 in 10.0 mi North 19.6 mph - N/A   Clear
9:50 AM 37.4 °F 27.2 °F 24.8 °F 60% 29.75 in 10.0 mi North 19.6 mph 24.2 mph N/A   Clear
10:10 AM 37.4 °F 26.1 °F 24.8 °F 60% 29.76 in 10.0 mi North 24.2 mph 27.6 mph N/A   Clear
10:30 AM 39.2 °F 29.8 °F 26.6 °F 61% 29.77 in 10.0 mi North 18.4 mph 27.6 mph N/A   Clear
10:50 AM 41.0 °F 31.6 °F 26.6 °F 57% 29.78 in 10.0 mi North 20.7 mph 32.2 mph N/A   Clear
11:10 AM 41.0 °F 30.7 °F 26.6 °F 57% 29.79 in 10.0 mi NNE 25.3 mph 32.2 mph N/A   Clear
11:30 AM 44.6 °F 35.5 °F 26.6 °F 49% 29.79 in 10.0 mi NNE 25.3 mph 35.7 mph N/A   Clear
11:50 AM 41.0 °F 30.5 °F 24.8 °F 53% 29.79 in 10.0 mi NNE 26.5 mph 39.1 mph N/A   Clear
12:10 PM 44.6 °F 35.3 °F 26.6 °F 49% 29.79 in 10.0 mi North 26.5 mph 38.0 mph N/A   Clear
12:30 PM 44.6 °F 34.9 °F 28.4 °F 53% 29.78 in 10.0 mi NNE 28.8 mph 39.1 mph N/A   Clear
12:50 PM 42.8 °F 32.9 °F 28.4 °F 57% 29.79 in 10.0 mi NNE 26.5 mph 38.0 mph N/A   Scattered Clouds
1:10 PM 41.0 °F 30.9 °F 28.4 °F 61% 29.80 in 10.0 mi NNE 24.2 mph 39.1 mph N/A   Overcast
1:30 PM 39.2 °F 27.6 °F 28.4 °F 65% 29.79 in 10.0 mi NNE 28.8 mph 38.0 mph N/A   Overcast
1:50 PM 37.4 °F 25.4 °F 26.6 °F 65% 29.82 in 10.0 mi North 27.6 mph 36.8 mph N/A   Overcast
2:10 PM 37.4 °F 25.2 °F 26.6 °F 65% 29.82 in 10.0 mi North 28.8 mph 35.7 mph N/A   Overcast
2:30 PM 35.6 °F 23.4 °F 24.8 °F 65% 29.83 in 10.0 mi North 25.3 mph 33.4 mph N/A   Overcast
2:50 PM 35.6 °F 23.7 °F 24.8 °F 65% 29.84 in 10.0 mi North 24.2 mph 31.1 mph N/A   Overcast
3:10 PM 33.8 °F 21.6 °F 24.8 °F 70% 29.86 in 10.0 mi North 23.0 mph 32.2 mph N/A   Overcast
3:30 PM 33.8 °F 22.5 °F 23.0 °F 65% 29.87 in 10.0 mi North 19.6 mph 29.9 mph N/A   Overcast
3:50 PM 33.8 °F 22.2 °F 23.0 °F 65% 29.87 in 10.0 mi North 20.7 mph 32.2 mph N/A   Overcast
4:10 PM 32.0 °F 19.8 °F 23.0 °F 69% 29.89 in 10.0 mi North 20.7 mph 26.5 mph N/A   Overcast
4:30 PM 32.0 °F 19.5 °F 19.4 °F 60% 29.89 in 10.0 mi NNE 21.9 mph 32.2 mph N/A   Overcast
4:50 PM 32.0 °F 19.5 °F 19.4 °F 60% 29.90 in 10.0 mi NNE 21.9 mph 27.6 mph N/A   Mostly Cloudy
5:10 PM 30.2 °F 17.1 °F 19.4 °F 64% 29.92 in 10.0 mi North 21.9 mph - N/A   Scattered Clouds
5:30 PM 28.4 °F 14.1 °F 19.4 °F 69% 29.93 in 10.0 mi North 24.2 mph 31.1 mph N/A   Clear
5:50 PM 28.4 °F 15.8 °F 19.4 °F 69% 29.93 in 10.0 mi NNE 18.4 mph 24.2 mph N/A   Mostly Cloudy
6:10 PM 28.4 °F 13.5 °F 19.4 °F 69% 29.94 in 10.0 mi NNE 26.5 mph 32.2 mph N/A   Overcast
6:30 PM 28.4 °F 15.1 °F 17.6 °F 64% 29.95 in 10.0 mi NNE 20.7 mph 28.8 mph N/A   Overcast
6:50 PM 28.4 °F 13.8 °F 17.6 °F 64% 29.96 in 10.0 mi North 25.3 mph 31.1 mph N/A   Overcast
7:10 PM 28.4 °F 15.4 °F 17.6 °F 64% 29.96 in 10.0 mi NNE 19.6 mph 32.2 mph N/A   Overcast
7:30 PM 28.4 °F 15.4 °F 17.6 °F 64% 29.98 in 10.0 mi NNE 19.6 mph 32.2 mph N/A   Overcast
7:50 PM 26.6 °F 11.4 °F 17.6 °F 69% 29.97 in 10.0 mi NNE 25.3 mph 31.1 mph N/A   Overcast
8:10 PM 26.6 °F 12.4 °F 17.6 °F 69% 30.00 in 10.0 mi North 21.9 mph 29.9 mph N/A   Overcast
8:30 PM 26.6 °F 11.4 °F 17.6 °F 69% 30.01 in 10.0 mi North 25.3 mph 29.9 mph N/A   Overcast
8:50 PM 24.8 °F 10.7 °F 17.6 °F 74% 30.02 in 10.0 mi North 19.6 mph 29.9 mph N/A   Overcast
9:10 PM 24.8 °F 9.6 °F 17.6 °F 74% 30.01 in 6.0 mi North 23.0 mph 31.1 mph N/A Rain Light Freezing Rain
9:30 PM 23.0 °F 9.6 °F 17.6 °F 80% 30.03 in 2.0 mi North 16.1 mph 25.3 mph 0.03 in Snow Light Snow
9:50 PM 23.0 °F 9.2 °F 19.4 °F 86% 30.04 in 2.5 mi North 17.3 mph - 0.06 in   Overcast
10:10 PM 23.0 °F 7.6 °F 19.4 °F 86% 30.06 in 0.8 mi North 21.9 mph 31.1 mph 0.06 in Snow Light Snow
10:30 PM 23.0 °F 9.6 °F 19.4 °F 86% 30.07 in 0.8 mi North 16.1 mph 25.3 mph 0.31 in Snow Light Snow
10:50 PM 21.2 °F 5.6 °F 17.6 °F 86% 30.05 in 0.5 mi North 20.7 mph 27.6 mph 0.77 in Snow Snow
11:10 PM 21.2 °F 4.9 °F 19.4 °F 93% 30.04 in 0.8 mi North 23.0 mph 31.1 mph 0.33 in Snow Light Snow
11:30 PM 21.2 °F 5.6 °F 17.6 °F 86% 30.03 in 1.5 mi North 20.7 mph 33.4 mph 0.62 in Snow Light Snow
11:50 PM 19.4 °F 1.4 °F 17.6 °F 93% 30.06 in 2.0 mi North 26.5 mph 29.9 mph 0.76 in Snow Light Snow